Jonesville, VA

9:45 PM EST on November 20, 2019 (GMT -0500)
Jonesville

Weather History for K0VG - October, 2019

Change the Weather History Date:

Sunday, October 20, 2019

  Actual Average (WUND) Record (WUND)
Temperature  
Mean Temperature 58 °F -  
Max Temperature 64 °F - - (-1)
Min Temperature 53 °F - - (-1)
Degree Days  
Heating Degree Days 6    
Growing Degree Days 8 (Base 50)    
Moisture  
Dew Point 57 °F    
Average Humidity 94    
Maximum Humidity 100    
Minimum Humidity 82    
Precipitation  
Precipitation 0.00 in - - ()
Sea Level Pressure  
Sea Level Pressure 29.94 in    
Wind  
Wind Speed - (North)    
Max Wind Speed -    
Max Gust Speed -    
Visibility 8 miles    
Events      
Averages and records for this station are not official NWS values.
T = Trace of Precipitation, MM = Missing Value Source: NWS Daily Summary

Daily Weather History Graph

Daily Weather History Graph

Search for Another Location

Airport or City:

Astronomy

Oct. 20, 2019 Rise Set
Actual Time 7:44 AM EDT 6:50 PM EDT
Civil Twilight 7:18 AM EDT 7:16 PM EDT
Nautical Twilight 6:48 AM EDT 7:46 PM EDT
Astronomical Twilight 6:18 AM EDT 8:16 PM EDT
Moon No Moon Rise 2:05 PM EDT (10/20)
Length of Visible Light 11h 57m
Length of Day
11h 05m
Waning Gibbous, 59% of the Moon is Illuminated
Oct 20
Waning Gibbous
Oct 21
Last Quarter
Oct 27
New
Nov 4
First Quarter
Nov 12
Full

Hourly Weather History & Observations

Time (EDT) Temp. Dew Point Humidity Pressure Visibility Wind Dir Wind Speed Gust Speed Precip Events Conditions
12:15 AM 53.6 °F 53.6 °F 100% 29.88 in 9.0 mi North - - N/A   Light Drizzle
12:35 AM 53.6 °F 53.6 °F 100% 29.87 in 10.0 mi North - - N/A   Clear
12:55 AM 53.6 °F 53.6 °F 100% 29.87 in 10.0 mi North - - N/A   Clear
1:15 AM 53.6 °F 53.6 °F 100% 29.86 in 10.0 mi North - - N/A   Clear
1:35 AM 53.6 °F 53.6 °F 100% 29.86 in 10.0 mi North - - N/A   Light Drizzle
2:15 AM 53.6 °F 53.6 °F 100% 29.85 in 10.0 mi North - - N/A   Clear
2:35 AM 53.6 °F 53.6 °F 100% 29.86 in 9.0 mi North - - N/A   Clear
2:55 AM 53.6 °F 53.6 °F 100% 29.85 in 4.0 mi North - - N/A   Light Drizzle
3:35 AM 53.6 °F 53.6 °F 100% 29.84 in 3.0 mi North - - N/A   Clear
3:55 AM 53.6 °F 53.6 °F 100% 29.84 in 6.0 mi North - - N/A   Clear
4:15 AM 53.6 °F 53.6 °F 100% 29.84 in 10.0 mi North - - N/A   Clear
4:35 AM 53.6 °F 53.6 °F 100% 29.84 in 10.0 mi North - - N/A   Clear
4:55 AM 53.6 °F 53.6 °F 100% 29.84 in 9.0 mi North - - N/A   Clear
5:15 AM 53.6 °F 53.6 °F 100% 29.84 in 3.0 mi North - - N/A   Clear
5:35 AM 53.6 °F 53.6 °F 100% 29.85 in 3.0 mi North - - N/A   Clear
6:15 AM 53.6 °F 53.6 °F 100% 29.86 in 4.0 mi North - - N/A   Clear
6:35 AM 53.6 °F 53.6 °F 100% 29.87 in 5.0 mi North - - N/A   Clear
6:55 AM 53.6 °F 53.6 °F 100% 29.88 in 2.0 mi North - - N/A   Clear
7:15 AM 53.6 °F 53.6 °F 100% 29.88 in 3.0 mi North - - N/A   Clear
7:35 AM 53.6 °F 53.6 °F 100% 29.88 in 4.0 mi North - - N/A   Clear
7:55 AM 53.6 °F 53.6 °F 100% 29.89 in 9.0 mi North - - N/A   Clear
8:15 AM 53.6 °F 53.6 °F 100% 29.89 in 6.0 mi North - - N/A   Clear
8:35 AM 53.6 °F 53.6 °F 100% 29.90 in 2.0 mi North - - N/A   Clear
8:55 AM 55.4 °F 55.4 °F 100% 29.92 in 2.5 mi North - - N/A   Clear
9:15 AM 55.4 °F 55.4 °F 100% 29.93 in 2.5 mi North - - N/A   Clear
9:35 AM 55.4 °F 55.4 °F 100% 29.93 in 1.8 mi North - - N/A   Clear
9:55 AM 55.4 °F 55.4 °F 100% 29.94 in 8.0 mi North - - N/A   Clear
10:15 AM 57.2 °F 57.2 °F 100% 29.94 in 10.0 mi North - - N/A   Clear
10:35 AM 57.2 °F 57.2 °F 100% 29.95 in 10.0 mi North - - N/A   Clear
10:55 AM 57.2 °F 57.2 °F 100% 29.95 in 10.0 mi North - - N/A   Clear
11:15 AM 59.0 °F 59.0 °F 100% 29.96 in 4.0 mi North - - N/A   Clear
11:35 AM 59.0 °F 59.0 °F 100% 29.96 in 2.0 mi North - - N/A   Clear
11:55 AM 59.0 °F 59.0 °F 100% 29.96 in 1.2 mi North - - N/A   Clear
12:15 PM 59.0 °F 59.0 °F 100% 29.97 in 5.0 mi North - - N/A   Clear
12:35 PM 60.8 °F 59.0 °F 94% 29.97 in 10.0 mi North - - N/A   Clear
12:55 PM 62.6 °F 57.2 °F 82% 29.96 in 10.0 mi North - - N/A   Clear
1:15 PM 62.6 °F 59.0 °F 88% 29.96 in 10.0 mi North - - N/A   Clear
1:35 PM 62.6 °F 59.0 °F 88% 29.96 in 10.0 mi North - - N/A   Clear
1:55 PM 62.6 °F 59.0 °F 88% 29.96 in 10.0 mi North - - N/A   Clear
2:15 PM 62.6 °F 59.0 °F 88% 29.96 in 10.0 mi North - - N/A   Clear
2:35 PM 62.6 °F 59.0 °F 88% 29.96 in 10.0 mi North - - N/A   Clear
2:55 PM 62.6 °F 59.0 °F 88% 29.95 in 10.0 mi North - - N/A   Clear
3:15 PM 64.4 °F 59.0 °F 83% 29.95 in 10.0 mi North - - N/A   Clear
3:35 PM 64.4 °F 59.0 °F 83% 29.95 in 10.0 mi North - - N/A   Clear
3:55 PM 64.4 °F 59.0 °F 83% 29.96 in 10.0 mi North - - N/A   Clear
4:15 PM 64.4 °F 59.0 °F 83% 29.97 in 10.0 mi North - - N/A   Clear
4:35 PM 64.4 °F 59.0 °F 83% 29.97 in 10.0 mi North - - N/A   Clear
4:55 PM 64.4 °F 59.0 °F 83% 29.97 in 10.0 mi North - - N/A   Clear
5:15 PM 64.4 °F 59.0 °F 83% 29.97 in 10.0 mi North - - N/A   Clear
5:35 PM 64.4 °F 59.0 °F 83% 29.97 in 10.0 mi North - - N/A   Clear
5:55 PM 64.4 °F 59.0 °F 83% 29.97 in 10.0 mi North - - N/A   Clear
6:15 PM 64.4 °F 59.0 °F 83% 29.98 in 10.0 mi North - - N/A   Clear
6:35 PM 64.4 °F 59.0 °F 83% 29.98 in 10.0 mi North - - N/A   Clear
6:55 PM 62.6 °F 59.0 °F 88% 29.98 in 10.0 mi North - - N/A   Clear
7:15 PM 62.6 °F 59.0 °F 88% 29.99 in 10.0 mi North - - N/A   Clear
7:35 PM 62.6 °F 59.0 °F 88% 29.99 in 10.0 mi North - - N/A   Clear
7:55 PM 62.6 °F 59.0 °F 88% 30.00 in 10.0 mi North - - N/A   Clear
8:15 PM 62.6 °F 59.0 °F 88% 30.00 in 10.0 mi North - - N/A   Clear
8:35 PM 62.6 °F 59.0 °F 88% 30.02 in 10.0 mi North - - N/A   Clear
8:55 PM 62.6 °F 59.0 °F 88% 30.01 in 10.0 mi North - - N/A   Clear
9:15 PM 62.6 °F 59.0 °F 88% 30.02 in 10.0 mi North - - N/A   Clear
9:35 PM 60.8 °F 59.0 °F 94% 30.02 in 10.0 mi North - - N/A   Clear
9:55 PM 60.8 °F 59.0 °F 94% 30.03 in 10.0 mi North - - N/A   Clear
10:15 PM 60.8 °F 59.0 °F 94% 30.03 in 10.0 mi North - - N/A   Clear
10:35 PM 60.8 °F 59.0 °F 94% 30.03 in 10.0 mi North - - N/A   Clear
10:55 PM 60.8 °F 59.0 °F 94% 30.04 in 10.0 mi North - - N/A   Clear
11:15 PM 60.8 °F 59.0 °F 94% 30.04 in 10.0 mi North - - N/A   Clear
11:35 PM 60.8 °F 59.0 °F 94% 30.04 in 10.0 mi North - - N/A   Clear
11:55 PM 60.8 °F 59.0 °F 94% 30.03 in 10.0 mi North - - N/A   Clear